Total_Precipitation_Accumulation
0.00 0.00 0.00 0.00 0.00 0.00 0.00 0.02 0.04 0.08 0.10 0.11 0.14 0.13 0.15 0.26 0.55 1.12 0.62 0.33 0.18 0.08 0.05 0.05 0.04 0.04 0.06 0.09 0.13 0.14 0.12 0.13 0.15 0.15 0.15 0.12 0.09 0.08 0.07 0.08 0.12 0.18 0.19 0.18 0.14 0.12 0.13 0.13 0.11
0.00 0.00 0.00 0.00 0.00 0.00 0.01 0.03 0.06 0.09 0.11 0.12 0.20 0.17 0.16 0.21 0.26 0.22 0.26 0.25 0.17 0.08 0.05 0.04 0.05 0.05 0.06 0.07 0.11 0.16 0.14 0.13 0.13 0.14 0.12 0.10 0.09 0.09 0.09 0.10 0.13 0.16 0.15 0.12 0.09 0.08 0.08 0.10 0.08
0.00 0.00 0.00 0.00 0.00 0.01 0.06 0.07 0.10 0.11 0.11 0.14 0.28 0.41 0.39 0.36 0.39 0.28 0.23 0.17 0.14 0.07 0.05 0.06 0.07 0.08 0.09 0.08 0.08 0.14 0.16 0.17 0.16 0.17 0.15 0.14 0.13 0.12 0.11 0.12 0.14 0.14 0.13 0.15 0.14 0.12 0.09 0.08 0.09
0.00 0.00 0.00 0.00 0.01 0.02 0.07 0.12 0.16 0.14 0.15 0.15 0.24 0.51 0.46 0.37 0.40 0.39 0.24 0.19 0.18 0.12 0.07 0.07 0.07 0.10 0.13 0.13 0.13 0.14 0.16 0.18 0.20 0.19 0.19 0.17 0.16 0.14 0.12 0.13 0.13 0.14 0.15 0.17 0.20 0.15 0.09 0.08 0.09
0.00 0.00 0.00 0.01 0.01 0.02 0.06 0.11 0.15 0.17 0.21 0.23 0.28 0.58 0.58 0.46 0.49 0.62 0.50 0.34 0.28 0.20 0.16 0.12 0.11 0.11 0.13 0.16 0.20 0.23 0.19 0.19 0.22 0.22 0.20 0.19 0.19 0.17 0.15 0.15 0.14 0.16 0.19 0.21 0.17 0.12 0.08 0.07 0.08
0.00 0.00 0.00 0.00 0.01 0.02 0.08 0.12 0.15 0.20 0.28 0.35 0.43 0.78 1.00 0.88 0.82 0.88 0.83 0.52 0.39 0.30 0.25 0.25 0.19 0.14 0.15 0.19 0.21 0.28 0.30 0.30 0.29 0.27 0.24 0.22 0.19 0.18 0.19 0.19 0.19 0.21 0.25 0.23 0.14 0.08 0.06 0.06 0.07
0.00 0.00 0.00 0.01 0.02 0.06 0.10 0.15 0.18 0.22 0.38 0.49 0.63 1.04 1.18 1.18 1.17 0.95 0.89 0.70 0.41 0.38 0.43 0.40 0.28 0.23 0.24 0.26 0.25 0.28 0.34 0.36 0.35 0.36 0.35 0.31 0.29 0.26 0.25 0.24 0.23 0.25 0.26 0.20 0.13 0.08 0.07 0.07 0.07
0.00 0.00 0.00 0.01 0.02 0.07 0.14 0.17 0.25 0.30 0.45 0.60 0.74 1.12 1.32 1.28 1.16 1.01 0.85 0.86 0.63 0.58 0.59 0.59 0.58 0.50 0.36 0.33 0.34 0.33 0.41 0.43 0.38 0.36 0.38 0.35 0.30 0.27 0.25 0.22 0.23 0.23 0.22 0.18 0.15 0.13 0.10 0.08 0.07
0.00 0.00 0.00 0.01 0.03 0.09 0.17 0.19 0.24 0.32 0.52 0.72 0.70 0.82 1.17 1.02 1.13 1.35 1.17 1.09 0.93 0.78 0.75 0.69 0.75 0.72 0.54 0.45 0.39 0.41 0.46 0.52 0.49 0.42 0.40 0.37 0.43 0.47 0.40 0.31 0.33 0.29 0.26 0.23 0.20 0.16 0.12 0.09 0.07
0.00 0.00 0.00 0.00 0.03 0.08 0.16 0.24 0.32 0.36 0.48 0.65 0.75 0.73 0.89 1.01 1.08 1.26 1.48 1.33 1.15 1.00 0.97 0.92 0.79 0.71 0.66 0.54 0.53 0.58 0.55 0.57 0.55 0.59 0.56 0.58 0.85 0.95 0.75 0.76 0.63 0.53 0.44 0.35 0.29 0.23 0.17 0.12 0.09
0.00 0.00 0.00 0.01 0.03 0.11 0.16 0.25 0.27 0.35 0.53 0.67 0.85 0.88 0.90 1.04 1.28 1.37 1.66 1.58 1.45 1.38 1.17 1.23 1.09 0.91 1.03 1.05 0.89 0.85 0.83 0.84 0.79 0.95 0.97 1.02 1.14 1.10 1.04 1.14 0.94 0.79 0.68 0.63 0.62 0.41 0.31 0.28 0.30
0.00 0.00 0.00 0.01 0.03 0.11 0.15 0.16 0.29 0.44 0.83 0.92 1.19 1.39 1.35 1.24 1.50 1.60 1.91 1.85 1.84 1.81 1.58 1.48 1.47 1.35 1.41 1.64 1.50 1.25 1.14 1.15 1.15 1.22 1.12 1.29 1.42 1.40 1.36 1.42 1.26 1.20 1.16 1.18 1.07 0.90 0.74 0.66 0.57
0.00 0.01 0.01 0.02 0.04 0.11 0.18 0.21 0.32 0.54 0.74 0.83 1.19 1.56 1.55 1.38 1.35 1.51 2.13 1.97 1.93 1.97 1.88 1.65 1.70 1.71 1.79 1.97 1.84 1.68 1.76 1.55 1.42 1.54 1.42 1.46 1.55 1.58 1.67 1.59 1.57 1.47 1.44 1.40 1.26 1.20 1.16 1.05 0.95
0.01 0.01 0.01 0.02 0.03 0.10 0.19 0.25 0.32 0.46 0.40 0.49 0.79 1.02 1.09 1.17 1.24 1.38 1.76 1.87 1.80 1.85 1.93 2.02 1.99 1.99 1.85 1.93 1.94 1.80 1.77 1.83 1.65 1.59 1.55 1.51 1.60 1.80 1.85 1.83 1.83 1.79 1.77 1.84 1.66 1.48 1.55 1.41 1.34
0.00 0.01 0.03 0.04 0.07 0.14 0.21 0.33 0.48 0.62 0.46 0.48 0.63 0.62 0.80 1.00 1.26 1.47 1.67 1.80 1.85 1.84 1.90 2.06 2.08 2.10 2.02 1.97 2.00 1.95 1.85 1.82 1.87 1.90 1.92 1.77 1.71 1.93 2.00 2.16 2.11 2.04 2.01 2.07 2.05 1.92 1.92 1.76 1.65
0.01 0.02 0.05 0.08 0.08 0.11 0.20 0.45 0.64 0.70 0.64 0.57 0.60 0.60 0.67 0.86 1.08 1.24 1.30 1.49 1.52 1.51 1.69 1.82 1.92 1.98 2.21 2.30 2.36 2.21 2.29 2.26 2.17 2.04 2.04 1.95 1.91 2.05 2.24 2.34 2.33 2.31 2.23 2.34 2.47 2.42 2.25 2.13 1.96
0.02 0.04 0.06 0.11 0.07 0.07 0.16 0.44 0.62 0.57 0.67 0.66 0.61 0.53 0.55 0.70 0.89 0.97 1.06 1.19 1.28 1.30 1.63 1.80 1.94 2.11 2.25 2.42 2.59 2.55 2.63 2.55 2.50 2.46 2.38 2.45 2.51 2.43 2.51 2.63 2.71 2.73 2.77 2.78 2.68 2.80 2.60 2.53 2.37
0.05 0.05 0.08 0.09 0.07 0.08 0.16 0.33 0.48 0.56 0.68 0.75 0.67 0.57 0.54 0.64 0.82 0.96 1.01 1.13 1.19 1.35 1.65 1.90 2.07 2.33 2.60 2.67 2.84 2.77 2.92 3.05 3.14 3.28 3.17 3.04 3.11 3.11 3.17 3.15 3.19 3.21 3.27 3.14 3.09 3.08 2.87 2.70 2.65
0.06 0.06 0.10 0.10 0.08 0.09 0.16 0.33 0.51 0.61 0.77 0.85 0.73 0.65 0.70 0.71 0.80 1.03 1.21 1.36 1.61 1.81 1.88 1.99 2.14 2.35 2.55 2.85 3.19 3.34 3.42 3.64 3.78 3.89 4.03 3.99 3.96 4.08 4.12 4.02 3.92 3.78 3.66 3.47 3.35 3.17 3.00 2.77 2.69
0.02 0.05 0.08 0.09 0.11 0.12 0.22 0.37 0.52 0.60 0.69 0.82 0.81 0.80 0.78 0.83 0.92 1.22 1.49 1.87 2.02 2.05 2.08 2.16 2.28 2.54 2.83 3.21 3.66 4.08 4.25 4.38 4.41 4.45 4.66 4.76 4.79 4.96 5.08 5.00 4.80 4.57 4.24 3.81 3.47 3.27 3.11 2.85 2.81
0.01 0.04 0.06 0.10 0.10 0.15 0.30 0.56 0.72 0.71 0.80 0.86 0.92 1.06 1.01 1.05 1.23 1.46 1.72 1.89 2.00 2.04 2.13 2.26 2.57 2.99 3.43 3.91 4.42 4.86 5.13 5.17 5.11 4.83 4.95 5.09 5.06 5.13 5.30 5.28 5.03 4.66 4.11 3.62 3.43 3.34 3.21 3.02 2.93
0.02 0.03 0.04 0.06 0.09 0.16 0.26 0.64 0.98 0.98 1.02 0.94 0.98 1.09 1.05 1.08 1.25 1.47 1.67 1.89 1.97 2.06 2.23 2.36 2.70 3.24 3.72 4.18 4.85 5.37 5.65 5.82 5.92 5.71 5.43 5.28 5.11 4.97 4.85 4.70 4.30 3.84 3.50 3.25 3.16 3.15 2.97 2.94 2.85
0.02 0.01 0.02 0.03 0.05 0.13 0.18 0.46 1.05 1.19 1.26 1.16 1.10 1.16 1.03 0.97 1.10 1.33 1.45 1.69 1.96 2.04 2.05 2.13 2.54 3.13 3.86 4.57 5.12 5.61 5.99 6.15 6.10 5.75 5.39 4.99 4.64 4.21 3.84 3.48 3.17 3.02 2.82 2.61 2.53 2.52 2.48 2.37 2.31
0.02 0.01 0.02 0.03 0.07 0.18 0.20 0.41 1.06 1.44 1.64 1.66 1.34 1.16 1.03 0.95 0.99 1.05 1.13 1.33 1.65 1.71 1.85 2.07 2.40 3.06 3.80 4.41 4.96 5.34 5.70 5.75 5.49 5.06 4.61 4.30 3.93 3.46 2.99 2.73 2.50 2.34 2.16 1.95 1.83 1.81 1.86 1.93 2.01
0.02 0.04 0.17 0.30 0.35 0.34 0.31 0.53 1.16 1.39 1.37 1.34 1.29 1.27 1.14 0.94 0.90 0.97 1.00 1.12 1.32 1.48 1.75 2.13 2.50 2.99 3.41 3.92 4.39 4.66 4.85 4.90 4.81 4.57 4.24 3.96 3.54 3.10 2.64 2.23 2.02 1.80 1.63 1.54 1.49 1.44 1.44 1.51 1.61
0.03 0.06 0.30 0.47 0.50 0.55 0.62 0.94 1.44 1.29 1.10 1.09 1.15 1.14 1.07 1.01 0.98 1.12 1.22 1.29 1.39 1.50 1.63 1.96 2.30 2.68 2.89 3.12 3.47 3.69 3.82 3.88 3.79 3.61 3.36 3.08 2.79 2.52 2.17 1.75 1.43 1.25 1.12 1.06 1.09 1.14 1.19 1.21 1.25
0.04 0.08 0.15 0.20 0.27 0.53 0.90 1.33 1.78 1.73 1.30 1.12 1.13 1.07 1.00 0.99 0.98 1.14 1.27 1.36 1.43 1.47 1.59 1.66 1.82 2.03 2.27 2.48 2.61 2.71 2.75 2.68 2.62 2.48 2.27 2.08 1.91 1.70 1.48 1.25 1.08 0.97 0.92 0.87 0.85 0.86 0.88 0.92 0.98
0.07 0.10 0.13 0.23 0.45 0.76 1.00 1.52 2.14 2.16 1.70 1.35 1.26 1.19 1.05 0.99 1.03 1.12 1.17 1.24 1.24 1.20 1.27 1.35 1.46 1.57 1.71 1.83 1.86 1.78 1.79 1.79 1.68 1.56 1.48 1.34 1.19 1.06 0.99 0.89 0.83 0.78 0.71 0.70 0.72 0.70 0.69 0.78 0.81
0.11 0.12 0.18 0.27 0.35 0.72 1.16 1.78 2.10 2.30 2.15 1.79 1.38 1.14 1.06 1.03 1.01 1.02 1.01 1.02 1.02 0.94 0.95 1.03 1.12 1.26 1.34 1.37 1.38 1.29 1.22 1.15 1.07 1.00 0.99 0.92 0.83 0.78 0.74 0.69 0.66 0.64 0.63 0.61 0.60 0.61 0.59 0.64 0.75
0.12 0.14 0.20 0.37 0.42 0.51 0.95 1.94 2.17 2.45 2.37 2.03 1.61 1.27 1.13 1.08 1.01 0.92 0.87 0.83 0.80 0.77 0.77 0.81 0.89 0.95 0.96 0.95 0.93 0.90 0.84 0.80 0.78 0.76 0.76 0.80 0.76 0.69 0.65 0.62 0.60 0.59 0.60 0.61 0.59 0.57 0.57 0.59 0.65